Dewpoint
56 54 54 54 54 54 53 53 53 53 54 55 55 56 56 57 57 54 51 53 54 57 57 53 52 51 51 48 47 47 43 39 40 40 41 42 43 44 42 35 37 41 51 57 59
56 56 56 56 56 56 54 54 53 52 54 54 55 55 56 58 53 50 53 57 57 55 56 51 49 50 48 47 47 44 39 38 42 44 42 43 44 44 37 39 39 46 49 55 57
53 53 52 53 53 54 54 56 54 52 52 53 54 54 56 56 48 46 54 58 58 56 54 51 51 50 46 45 44 43 40 41 43 44 44 42 43 44 41 33 34 35 48 53 55
49 49 49 49 49 50 51 52 54 54 53 52 53 53 56 53 24 42 50 58 58 55 53 52 50 48 45 44 45 41 45 43 45 46 46 43 45 44 43 42 44 45 49 49 52
50 49 49 48 49 49 49 49 50 52 53 54 52 54 53 45 42 45 54 57 55 55 53 51 48 46 44 44 45 44 43 45 44 46 46 44 44 44 45 43 42 41 45 43 47
47 46 48 48 47 48 48 47 48 49 49 52 55 52 49 39 42 48 49 48 55 54 53 52 49 48 45 44 44 43 44 44 46 46 45 44 42 46 45 41 41 46 44 42 42
46 45 45 45 45 45 46 48 48 48 49 50 52 51 46 39 41 46 46 49 54 54 52 52 52 49 46 42 42 43 40 42 44 46 45 45 42 43 41 45 41 42 46 43 43
45 45 45 45 45 45 46 46 46 47 48 49 50 49 40 45 45 43 41 42 52 55 53 52 52 49 47 45 39 36 38 35 36 45 45 44 38 41 43 43 41 39 42 42 43
45 44 45 45 45 45 45 47 48 50 50 48 49 45 37 45 44 44 44 41 48 52 51 51 50 46 45 42 38 38 32 34 37 45 44 43 39 40 42 40 42 36 40 42 43
44 44 44 44 44 45 47 47 49 51 49 48 49 42 41 35 42 45 45 43 43 45 47 48 47 44 42 40 32 34 34 33 33 42 44 42 40 41 41 41 40 39 38 41 42
43 43 43 43 43 44 40 43 38 37 42 39 38 36 35 39 40 43 45 40 38 40 40 41 39 34 37 38 38 36 34 33 34 40 42 42 41 41 41 40 39 39 38 39 41
42 43 43 43 43 43 34 28 35 37 34 39 38 39 39 36 33 36 42 38 34 33 39 37 35 35 35 36 38 38 35 33 33 38 40 40 40 43 42 41 39 39 39 38 40
44 43 43 43 44 37 33 32 37 38 38 35 38 38 37 39 36 32 39 37 35 33 35 33 31 36 35 35 35 34 35 33 31 35 40 39 38 41 42 43 42 39 40 38 40
44 43 43 45 36 35 33 36 36 37 30 27 33 36 36 39 35 38 37 37 32 33 32 32 33 33 34 33 35 31 33 35 35 33 29 38 26 36 39 41 43 43 42 39 38
43 43 43 43 36 34 33 36 36 40 11 16 28 36 37 33 29 34 36 35 32 31 32 30 31 30 31 32 33 32 34 34 35 34 34 32 32 29 38 39 40 42 43 39 37
43 43 44 38 35 36 36 37 37 24 11 20 29 31 33 33 31 34 34 34 32 31 31 29 33 32 31 33 34 34 33 34 33 33 27 30 31 26 34 38 40 41 40 40 36
43 43 41 34 29 34 36 36 23 17 18 19 27 28 29 30 30 30 31 30 28 27 27 29 28 30 31 30 33 33 32 26 26 25 24 29 30 28 28 33 38 40 37 36 31
43 43 37 32 33 36 37 28 16 15 21 28 27 26 27 28 29 28 29 28 29 26 23 23 22 27 29 29 28 31 31 26 22 22 21 27 26 26 28 30 28 39 40 37 33
43 37 35 32 35 34 29 20 16 25 27 26 26 23 25 30 30 27 28 28 28 28 24 23 22 26 27 30 30 31 30 33 30 24 18 23 23 23 22 25 28 28 39 39 32
37 33 31 34 31 32 20 13 24 28 24 24 21 24 22 26 28 30 26 27 27 28 27 25 21 24 27 29 32 36 35 30 31 23 20 20 17 18 18 21 23 24 26 38 31
31 27 29 31 34 27 13 16 22 23 26 22 22 24 24 26 26 25 29 32 34 29 29 27 25 22 26 27 27 35 34 33 32 31 21 15 15 20 20 19 20 22 22 29 30
31 24 29 31 21 22 17 23 22 22 18 18 25 25 21 22 21 25 25 25 26 32 33 30 32 26 23 23 26 29 32 34 27 27 27 20 21 23 21 22 21 23 24 28 29
33 28 31 30 11 15 20 22 18 17 17 18 19 18 23 21 18 16 15 25 23 24 30 33 30 24 19 20 24 29 31 34 31 30 28 27 24 23 25 28 28 28 32 34 36
33 22 22 25 24 12 10 17 15 20 18 20 18 18 12 13 11 13 12 16 17 14 30 35 31 28 18 18 22 24 29 32 32 29 26 27 26 25 23 28 33 34 35 36 39
33 25 23 16 18 20 22 18 17 15 17 19 16 16 18 15 12 6 10 11 14 20 26 28 24 29 29 27 22 22 26 28 31 30 27 25 23 24 23 25 33 35 37 40 41
29 27 29 21 21 22 22 20 19 17 17 16 15 16 17 15 15 13 13 13 15 17 20 27 20 22 23 28 27 20 22 24 25 28 26 26 24 21 27 31 35 36 39 40 42
36 36 31 21 20 19 20 20 18 19 20 18 18 18 17 17 18 15 17 18 17 16 15 20 22 22 20 26 26 23 22 22 22 24 25 23 24 24 25 29 35 37 40 40 41
Lifted_Index
8 8 8 9 9 9 10 10 11 10 10 9 8 8 8 7 8 8 8 7 6 6 5 5 6 6 6 6 5 4 4 4 4 3 2 1 1 1 3 3 2 1 1 0 -0
9 9 9 9 9 9 10 10 10 10 10 9 9 8 8 7 8 8 8 7 6 5 5 5 5 5 6 6 5 5 5 4 3 2 2 1 1 1 2 2 2 2 1 -0 -1
11 11 11 11 11 11 10 10 10 10 10 10 9 9 8 7 8 8 7 5 5 4 4 5 5 5 5 5 5 5 5 4 3 2 2 2 1 1 2 2 3 2 1 -1 -1
13 13 13 13 13 13 12 11 11 10 10 10 10 9 8 7 7 7 6 4 3 3 4 4 4 5 5 5 5 5 4 3 2 2 1 2 2 2 3 4 4 3 1 -1 -1
14 14 14 14 14 14 13 13 12 11 11 10 10 9 9 8 8 8 6 4 3 3 3 3 4 4 4 4 4 4 3 2 2 1 1 1 2 2 3 5 5 4 1 -1 -1
14 14 15 15 15 15 14 14 13 13 12 11 10 10 9 8 8 8 6 4 3 2 2 3 3 4 4 4 4 3 2 2 1 1 1 0 1 2 3 5 5 4 1 -0 -1
15 15 15 16 16 16 15 15 14 14 13 12 10 10 10 9 9 8 7 5 3 2 2 2 3 3 3 4 3 3 2 2 1 1 0 0 1 2 3 4 5 4 2 0 -0
16 16 16 16 16 16 16 15 15 14 13 12 11 10 10 10 9 8 7 5 3 2 2 2 3 3 3 3 3 3 2 2 1 1 0 0 1 2 2 3 4 5 4 2 0
16 16 16 16 16 16 15 15 13 12 12 11 10 10 11 10 9 8 8 6 4 2 2 2 3 3 3 3 3 2 2 2 1 0 -0 0 1 1 2 2 3 4 5 4 2
16 16 16 16 16 16 15 13 12 11 10 10 10 10 11 10 9 8 7 6 4 3 2 3 3 3 3 2 2 2 2 1 1 0 -0 0 0 0 1 2 2 4 5 5 4
16 16 16 16 16 15 14 13 11 11 10 10 10 10 10 10 9 8 7 6 4 3 3 3 3 3 3 2 2 2 1 1 0 -0 -0 -0 -0 -0 0 1 2 3 4 5 5
16 16 16 16 15 15 14 13 12 11 10 10 11 10 10 9 9 8 6 5 5 4 4 4 4 4 3 3 2 2 1 1 1 0 -0 -0 -0 -0 -0 0 1 2 3 4 5
16 16 16 16 15 15 15 14 12 11 10 10 10 10 9 9 8 8 6 5 5 5 5 4 4 4 3 3 3 2 2 1 1 0 0 -0 -0 -0 -0 0 1 2 3 3 4
15 15 15 16 16 16 16 14 12 9 8 8 9 9 8 8 8 7 6 5 4 4 5 5 4 4 4 3 3 3 2 1 1 0 0 0 0 0 0 1 1 2 3 4 4
15 15 15 15 16 15 15 13 10 7 6 7 8 8 7 7 6 6 5 5 4 4 5 5 5 4 4 4 3 3 2 1 1 1 1 1 1 1 1 1 2 2 3 3 4
16 15 15 15 15 14 13 12 9 6 5 5 6 6 6 6 5 5 4 4 4 4 5 5 5 5 5 4 4 3 2 1 1 1 1 1 1 2 2 2 2 2 2 3 3
15 15 15 16 15 14 13 11 8 6 5 5 4 4 5 5 4 4 3 4 4 4 4 4 4 5 5 5 4 3 2 1 1 0 1 1 1 2 3 3 3 2 2 2 2
15 15 15 16 15 14 12 10 7 6 5 5 4 4 4 4 3 3 3 3 3 4 4 4 4 4 5 4 4 3 2 1 0 0 0 1 2 3 3 3 3 3 2 2 3
15 15 15 15 14 13 11 9 6 5 5 5 4 4 4 4 3 3 3 3 3 3 3 3 4 4 4 4 3 3 2 1 0 0 0 1 2 3 3 3 3 3 3 3 3
15 15 14 13 12 11 9 7 5 4 4 4 4 4 4 3 3 2 2 2 2 3 3 3 3 4 4 4 3 2 2 1 0 0 0 1 2 2 3 3 3 4 4 4 4
14 13 12 10 9 7 6 5 4 3 4 4 3 3 3 3 3 2 1 2 2 2 2 2 3 3 3 3 3 2 1 1 0 0 0 1 1 2 3 3 3 3 4 4 4
11 10 8 7 6 5 4 3 3 3 3 3 3 3 3 3 3 2 2 2 2 2 1 2 2 3 3 3 3 2 1 1 0 0 0 1 1 2 2 2 2 3 3 4 4
8 7 6 5 4 3 2 2 2 2 2 3 3 3 3 3 3 3 3 3 3 3 2 2 2 2 3 3 3 2 2 1 1 0 0 1 1 1 1 2 2 3 3 3 4
5 4 4 3 2 1 1 1 1 1 2 2 2 3 4 4 3 3 3 4 5 5 4 3 3 2 2 3 3 3 2 2 1 1 1 1 1 1 1 2 3 3 3 4 4
2 2 2 2 1 1 1 1 1 1 1 1 2 2 3 4 4 4 4 4 5 6 6 5 3 3 2 2 3 3 2 2 2 1 1 2 2 2 2 3 3 4 4 4 4
1 1 1 0 0 0 0 0 0 1 1 1 1 2 2 3 4 4 5 5 6 6 7 6 4 3 3 2 2 2 3 3 2 2 2 2 3 2 3 3 3 3 4 4 4
0 0 0 0 0 0 0 0 0 0 0 1 1 1 2 2 4 5 5 5 6 7 7 6 5 4 2 1 1 2 3 3 2 2 2 3 3 3 3 3 3 3 3 4 4